Weather History for Detroit Metro, MI

Change the Weather History Date:

Wednesday, May 14, 2014

  Actual Average Record
Temperature  
Mean Temperature 57 °F 59 °F  
Max Temperature 63 °F 69 °F 91 °F (1962)
Min Temperature 50 °F 49 °F 34 °F (1984)
Degree Days  
Heating Degree Days 8 7  
Month to date heating degree days 102 123  
Since 1 July heating degree days 6944 6017  
Cooling Degree Days 0 1  
Month to date cooling degree days 25 9  
Year to date cooling degree days 25 15  
Growing Degree Days 6 (Base 50)    
Moisture  
Dew Point 53 °F    
Average Humidity 82    
Maximum Humidity 93    
Minimum Humidity 71    
Precipitation  
Precipitation 0.25 in 0.11 in 1.39 in (1916)
Month to date precipitation 2.61 1.44  
Year to date precipitation 12.41 10.60  
Snow  
Snow 0.00 in 0.00 in 0.00 in ()
Month to date snowfall 0.0 0.0  
Since 1 July snowfall 94.9 42.5  
Snow Depth 0.00 in    
Sea Level Pressure  
Sea Level Pressure 30.07 in    
Wind  
Wind Speed 7 mph (NNW)    
Max Wind Speed 18 mph    
Max Gust Speed 24 mph    
Visibility 7 miles    
Events Rain    
T = Trace of Precipitation, MM = Missing Value Source: NWS Daily Summary

Daily Weather History Graph

Daily Weather History Graph

Search for Another Location

Airport:

Trip Planner

Search our weather history database for the weather conditions in past years. The results will help you decide how hot, cold, wet, or windy it might be!

Date:

Astronomy

May. 14, 2014 Rise Set
Actual Time 6:13 AM EDT 8:46 PM EDT
Civil Twilight 5:41 AM EDT 9:18 PM EDT
Nautical Twilight 5:01 AM EDT 9:58 PM EDT
Astronomical Twilight 4:16 AM EDT 10:44 PM EDT
Moon 8:50 PM EDT (5/14) 6:12 AM EDT (5/14)
Length of Visible Light 15h 37m
Length of Day
14h 33m
Full, 100% of the Moon is Illuminated
May 14
Full
May 14
Full
May 21
Last Quarter
May 28
New
Jun 5
First Quarter

Hourly Weather History & Observations

Time (EDT) Temp. Dew Point Humidity Pressure Visibility Wind Dir Wind Speed Gust Speed Precip Events Conditions
12:44 AM 64.4 °F 59.0 °F 83% 30.06 in 8.0 mi West 8.1 mph - 0.00 in Rain Light Rain
12:53 AM 64.0 °F 59.0 °F 84% 30.05 in 8.0 mi WNW 9.2 mph - 0.00 in Rain Light Rain
1:42 AM 62.6 °F 55.4 °F 77% 30.07 in 9.0 mi West 10.4 mph - 0.00 in Rain Light Rain
1:53 AM 61.0 °F 55.9 °F 83% 30.06 in 9.0 mi West 11.5 mph - 0.00 in Rain Light Rain
2:19 AM 60.8 °F 55.4 °F 82% 30.08 in 4.0 mi West 6.9 mph - 0.01 in Rain Rain
2:46 AM 59.0 °F 55.4 °F 88% 30.08 in 6.0 mi West 6.9 mph - 0.03 in Rain Light Rain
2:53 AM 59.0 °F 55.0 °F 87% 30.07 in 6.0 mi WNW 5.8 mph - 0.03 in Rain Light Rain
3:46 AM 59.0 °F 55.4 °F 88% 30.10 in 6.0 mi WNW 4.6 mph - 0.00 in Rain Light Rain
3:53 AM 59.0 °F 55.4 °F 88% 30.10 in 6.0 mi WNW 4.6 mph - N/A Rain Light Rain
4:00 AM 59.0 °F 55.4 °F 88% 30.10 in 5.0 mi WNW 5.8 mph - 0.01 in Rain Light Rain
4:53 AM 57.9 °F 53.1 °F 84% 30.11 in 7.0 mi WNW 8.1 mph - 0.01 in Rain Light Rain
5:00 AM 57.2 °F 53.6 °F 88% 30.11 in 9.0 mi WNW 8.1 mph - 0.00 in Rain Light Rain
5:53 AM 57.0 °F 53.1 °F 87% 30.11 in 10.0 mi WNW 4.6 mph - 0.00 in Rain Light Rain
6:43 AM 57.2 °F 53.6 °F 88% 30.12 in 10.0 mi NW 3.5 mph - 0.00 in   Overcast
6:53 AM 57.0 °F 53.1 °F 87% 30.11 in 10.0 mi NNW 5.8 mph - 0.00 in   Overcast
7:53 AM 57.9 °F 52.0 °F 81% 30.13 in 10.0 mi NW 5.8 mph - N/A   Overcast
8:53 AM 57.9 °F 52.0 °F 81% 30.13 in 10.0 mi NNW 4.6 mph - N/A   Overcast
9:53 AM 59.0 °F 53.1 °F 81% 30.13 in 10.0 mi North 6.9 mph - N/A   Overcast
11:32 AM 59.0 °F 53.6 °F 82% 30.13 in 8.0 mi North 3.5 mph - N/A   Overcast
11:53 AM 59.0 °F 54.0 °F 83% 30.12 in 7.0 mi North 8.1 mph - N/A   Overcast
12:53 PM 57.9 °F 54.0 °F 87% 30.13 in 2.5 mi Calm Calm - 0.00 in Rain Light Rain
1:15 PM 57.2 °F 53.6 °F 88% 30.12 in 3.0 mi NNE 4.6 mph - 0.00 in Rain Light Rain
1:43 PM 57.2 °F 53.6 °F 88% 30.12 in 2.5 mi Calm Calm - 0.02 in Rain Light Rain
1:53 PM 57.0 °F 55.0 °F 93% 30.12 in 2.5 mi Calm Calm - 0.05 in Rain Heavy Rain
2:12 PM 57.2 °F 55.4 °F 94% 30.09 in 3.0 mi NNE 6.9 mph - 0.09 in Rain Light Rain
2:45 PM 60.8 °F 55.4 °F 82% 30.09 in 3.0 mi NE 5.8 mph - 0.09 in   Overcast
2:53 PM 60.1 °F 55.0 °F 83% 30.09 in 3.0 mi NNE 6.9 mph - 0.09 in   Haze
3:13 PM 60.8 °F 55.4 °F 82% 30.06 in 3.0 mi NNE 10.4 mph - N/A   Haze
3:53 PM 60.1 °F 55.0 °F 83% 30.04 in 3.0 mi North 10.4 mph - N/A   Haze
4:53 PM 60.1 °F 54.0 °F 80% 30.04 in 9.0 mi NNE 8.1 mph - 0.00 in   Overcast
5:53 PM 59.0 °F 53.1 °F 81% 30.02 in 10.0 mi NNE 10.4 mph - N/A   Overcast
6:39 PM 57.2 °F 51.8 °F 82% 30.01 in 10.0 mi NNE 12.7 mph 21.9 mph N/A   Overcast
6:53 PM 57.9 °F 52.0 °F 81% 30.02 in 10.0 mi North 9.2 mph - N/A   Overcast
7:25 PM 57.2 °F 51.8 °F 82% 30.02 in 10.0 mi NNE 11.5 mph - N/A   Overcast
7:53 PM 57.0 °F 50.0 °F 77% 30.01 in 10.0 mi North 10.4 mph - N/A   Overcast
8:27 PM 57.2 °F 50.0 °F 77% 30.01 in 10.0 mi North 9.2 mph - N/A   Overcast
8:53 PM 55.9 °F 48.9 °F 77% 30.01 in 10.0 mi NNE 9.2 mph 19.6 mph N/A   Overcast
9:53 PM 53.1 °F 45.0 °F 74% 29.99 in 10.0 mi NNE 12.7 mph - N/A   Overcast
10:53 PM 53.6 °F 44.6 °F 72% 29.98 in 10.0 mi NNE 8.1 mph - N/A   Overcast
11:38 PM 51.8 °F 46.4 °F 82% 29.97 in 7.0 mi NNE 5.8 mph - 0.03 in Rain Rain
11:53 PM 50.0 °F 46.0 °F 86% 29.97 in 7.0 mi NNE 6.9 mph - 0.05 in Rain Light Rain